Location: Muck Cross
(36.7179°N, 78.3678°W)
Time: 20:11:37
(UTC+00:00)

Tiros 1 - All Passes

Search period start: 21 March 2023 00:00
Search period end: 31 March 2023 00:00
Orbit: 628 x 662 km, 48.4° (Epoch: 21 March)

Date Brightness Start Highest point End Pass type
(mag) Time Alt. Az. Time Alt. Az. Time Alt. Az.
21 Mar - 10:08:11 10° S 10:11:33 19° SE 10:14:56 10° E visible
21 Mar - 11:48:29 10° WSW 11:53:17 77° NW 11:58:06 10° NE daylight
21 Mar - 13:32:01 10° WNW 13:36:00 25° NNW 13:39:59 10° NE daylight
21 Mar - 15:15:50 10° NW 15:19:23 20° N 15:22:54 10° NE daylight
21 Mar - 16:58:04 10° NW 17:02:32 38° NNE 17:06:56 10° E daylight
21 Mar - 18:40:13 10° WNW 18:44:46 47° SW 18:49:14 10° SSE daylight
22 Mar - 10:31:56 10° SSW 10:36:29 44° SE 10:41:02 10° ENE visible
22 Mar - 12:14:09 10° W 12:18:41 41° NNW 12:23:13 10° NE daylight
22 Mar - 13:58:12 10° NW 14:01:47 20° N 14:05:22 10° NE daylight
22 Mar - 15:41:16 10° NW 15:45:11 24° NNE 15:49:04 10° ENE daylight
22 Mar - 17:23:11 10° NW 17:27:57 72° NNE 17:32:37 10° ESE daylight
22 Mar - 19:06:15 10° W 19:09:42 20° SW 19:13:06 10° S daylight
23 Mar - 09:16:53 10° S 09:19:56 17° SE 09:23:01 10° E visible
23 Mar - 10:56:48 10° SW 11:01:36 84° NW 11:06:26 10° NE daylight
23 Mar - 12:40:13 10° WNW 12:44:17 27° NNW 12:48:20 10° NE daylight
23 Mar - 14:24:06 10° NW 14:27:38 20° N 14:31:09 10° NE daylight
23 Mar - 16:06:25 10° NW 16:10:50 36° NNE 16:15:12 10° E daylight
23 Mar - 17:48:31 10° WNW 17:53:08 53° SW 17:57:41 10° SE daylight
24 Mar - 09:40:24 10° SSW 09:44:50 39° SE 09:49:18 10° ENE visible
24 Mar - 11:22:23 10° W 11:26:59 44° NNW 11:31:34 10° NE daylight
24 Mar - 13:06:24 10° WNW 13:10:03 21° N 13:13:40 10° NE daylight
24 Mar - 14:49:35 10° NW 14:53:26 24° NNE 14:57:17 10° ENE daylight
24 Mar - 16:31:32 10° NW 16:36:16 65° NNE 16:40:57 10° ESE daylight
24 Mar - 18:14:23 10° W 18:18:05 23° SW 18:21:45 10° S daylight
25 Mar - 08:25:39 10° SSE 08:28:20 15° SE 08:31:01 10° E visible
25 Mar - 10:05:09 10° SW 10:09:56 87° SE 10:14:46 10° NE visible
25 Mar - 11:48:25 10° WNW 11:52:32 28° NNW 11:56:41 10° NE daylight
25 Mar - 13:32:21 10° NW 13:35:53 20° N 13:39:24 10° NE daylight
25 Mar - 15:14:45 10° NW 15:19:06 34° NNE 15:23:25 10° E daylight
25 Mar - 16:56:47 10° WNW 17:01:29 60° SW 17:06:06 10° SE daylight
26 Mar - 08:48:52 10° SSW 08:53:12 35° SE 08:57:33 10° ENE visible
26 Mar - 10:30:38 10° WSW 10:35:16 48° NNW 10:39:55 10° NE visible
26 Mar - 12:14:36 10° WNW 12:18:17 21° N 12:21:58 10° NE daylight
26 Mar - 13:57:52 10° NW 14:01:42 23° NNE 14:05:29 10° ENE daylight
26 Mar - 15:39:51 10° NW 15:44:34 59° NNE 15:49:15 10° ESE daylight
26 Mar - 17:22:33 10° WNW 17:26:28 26° SW 17:30:20 10° S daylight
27 Mar - 07:34:33 10° SSE 07:36:43 13° SE 07:38:53 10° E visible
27 Mar - 09:13:28 10° SW 09:18:15 79° SE 09:23:04 10° ENE visible
27 Mar - 10:56:36 10° W 11:00:48 29° NNW 11:05:00 10° NE daylight
27 Mar - 12:40:35 10° NW 12:44:07 20° N 12:47:37 10° NE daylight
27 Mar - 14:23:04 10° NW 14:27:22 32° NNE 14:31:38 10° E daylight
27 Mar - 16:05:04 10° WNW 16:09:49 67° SW 16:14:30 10° SE daylight
27 Mar - 17:50:38 10° WSW 17:51:14 10° SW 17:51:50 10° SW daylight
28 Mar - 07:57:21 10° SSW 08:01:33 31° SE 08:05:45 10° ENE visible
28 Mar - 09:38:52 10° WSW 09:43:32 52° NNW 09:48:15 10° NE visible
28 Mar - 11:22:46 10° WNW 11:26:31 22° N 11:30:15 10° NE daylight
28 Mar - 13:06:10 10° NW 13:09:55 22° N 13:13:40 10° ENE daylight
28 Mar - 14:48:10 10° NW 14:52:52 54° NNE 14:57:31 10° ESE daylight
28 Mar - 16:30:43 10° WNW 16:34:49 29° SW 16:38:53 10° SSE daylight
29 Mar - 06:43:40 10° SE 06:45:06 11° SE 06:46:31 10° ESE visible
29 Mar - 08:21:49 10° SW 08:26:34 71° SE 08:31:20 10° ENE visible
29 Mar - 10:04:46 10° W 10:09:02 31° NNW 10:13:19 10° NE visible
29 Mar - 11:48:48 10° NW 11:52:19 20° N 11:55:50 10° NE daylight
29 Mar - 13:31:23 10° NW 13:35:37 30° NNE 13:39:50 10° E daylight
29 Mar - 15:13:21 10° WNW 15:18:08 75° SW 15:22:51 10° SE daylight
29 Mar - 16:57:50 10° WSW 16:59:37 12° SW 17:01:23 10° SSW daylight
30 Mar - 07:05:52 10° SSW 07:09:53 28° SE 07:13:56 10° ENE visible
30 Mar - 08:47:06 10° WSW 08:51:48 57° NNW 08:56:33 10° NE visible
30 Mar - 10:30:56 10° WNW 10:34:43 23° NNW 10:38:32 10° NE visible
30 Mar - 12:14:25 10° NW 12:18:08 22° N 12:21:50 10° ENE daylight
30 Mar - 13:56:28 10° NW 14:01:08 50° NNE 14:05:46 10° ESE daylight
30 Mar - 15:38:54 10° WNW 15:43:10 33° SW 15:47:22 10° SSE daylight
